Notice: Undefined index: language in /home/u294900127/public_html/vam/index.php on line 31
Aeroboteco

 INFORMAÇÕES METEOROLÓGICAS
METAR FOR SBMT
ADDS - METARS form results

(0043 UTC 16 July 2018)
Data provider http://aviationweather.gov/adds/metars/
 
METAR text: SBMT 160000Z 00000KT CAVOK 16/09 Q1021
Conditions at: SBMT (MARTE (CIV/MIL) , BR) observed 0000 UTC 16 July 2018
Temperature: 16.0°C (61°F)
Dewpoint: 9.0°C (48°F) [RH = 63%]
Pressure (altimeter): 30.15 inches Hg (1021.0 mb)
Winds: calm
Visibility: 6 or more miles (10+ km)
Ceiling: ceiling and visibility are OK
Clouds: unknown
Weather: no significant weather observed at this time

 MAPA DO AEROPORTO

 INFORMAÇÕES DA PISTA
Pista 12 Tamanho da pista 5249 ft Largura da pista 147 ft
Elevação da pista 2379 ft Ranhura da pista 984 ft Proa da pista 100
Pista 30 Tamanho da pista 5249 ft Largura da pista 147 ft
Elevação da pista 2376 ft Ranhura da pista 492 ft Proa da pista 280

 FREQUÊNCIAS DO AEROPORTO
Tipo APP Nome SAO PAULO Frequência 119.8 MHZ
Tipo GND Nome GND Frequência 121.6 MHZ
Tipo OPS Nome OPS Frequência 122.5 MHZ
Tipo TWR Nome TWR Frequência 118.7 MHZ

 AUXÍLIOS DE NAVEGAÇÃO PRÓXIMOS AO AEROPORTO
Tipo NDB Nome Marte Frequência 260 KHZ



Powered by Virtual Airlines Manager [v2.6.2]